Погода в Горячем Ключе

Россия / Краснодарский край     44°38′03″N   39°08′11″E
темп.,
°C
ветер,
м/с
пор.,
м/с
влажн.,
%
обл.,
%
осадки,
мм/ч
давл.,
гПа
погр.,
м
15 мая, сб
сб1500:00+15зюз22850 0.0 101222
03:00+14з22831 0.0 101229
06:00+14юз11830 0.0 101426
09:00+20зсз12565 0.0 1015374
12:00+24с22475 0.0 1014683
15:00+25ссв235179 0.0 1013683
18:00+24св23705 0.0 1012210
21:00+18ссв22900 0.3 101216
16 мая, вс
вс1600:00+16зюз11955 1.3 101112
03:00+16з119618 2.1 101111
06:00+16зюз0097100 0.2 101035
09:00+21ссв2388100 0.2 1009445
12:00+26св4571100 0.0 1007959
15:00+28всв566412 0.0 10051355
18:00+26св47763 0.0 1003632
21:00+21в26946 0.0 1002120
17 мая, пн
пн1700:00+19ююз11956 0.0 100211
03:00+17юз1294100 0.0 100316
06:00+17юз2491100 0.0 100589
09:00+21юз51366100 0.0 1007911
12:00+24юз61152100 0.0 10081187
15:00+23зюз695698 0.0 10091033
18:00+20зюз477143 0.1 1010478
21:00+15ююз239286 0.6 101248
18 мая, вт
вт1800:00+13юз2395100 0.0 101275
03:00+13юз3997100 0.0 1012259
06:00+14ююв119499 0.0 101436
09:00+19юз356916 0.0 1014799
12:00+23зюз56530 0.0 10141584
15:00+23зюз6752100 0.0 10131381
18:00+19зюз377099 0.0 1014473
21:00+14ююз22867 0.0 101521
19 мая, ср
ср1900:00+13ю33895 0.0 101552
03:00+12ююз2288100 0.0 101514
06:00+13ююв228679 0.0 101558
09:00+21юв35576 0.0 1014537
12:00+26всв344169 0.0 10121510
15:00+27всв454876 0.0 10101234
18:00+24в37687 0.0 1010316
21:00+18юв22870 0.0 100922